{"data":{"norad_id":48967,"epoch":"2026-05-24T22:47:44.581056Z","epoch_age_seconds":79057,"freshness":"FRESH","line1":"1 48967U 21060A   26144.94982154  .00000033  00000+0  52114-4 0  9994","line2":"2 48967  87.9107 233.3915 0001907 102.6013 257.5331 13.16594827236557","mean_motion":13.16594827,"eccentricity":0.0001907,"inclination_deg":87.9107,"raan_deg":233.3915,"arg_perigee_deg":102.6013,"mean_anomaly_deg":257.5331,"bstar":5.2114e-5,"rev_number":23655,"period_min":109.37305619537,"perigee_km":1196.3097580086,"apogee_km":1199.1992030193,"semimajor_km":7575.891480514,"source":"CELESTRAK","updated_at":"2026-05-25T13:38:22.449433Z"}}